| time (UTC) | temp F | wind direction | speed knots | gust knots | rain 1hr in | rain 24hr in | rain mn in | humidity % | barometer mb |
| 20260507182958 | 56 | 150 | 3.5 | 5.2 | 0.00 | 0.00 | 0.00 | 59 | 1013.4 |
| 20260507182456 | 56 | 140 | 3.5 | 5.2 | 0.00 | 0.00 | 0.00 | 59 | 1013.4 |
| 20260507181500 | 56 | 141 | 3.5 | 7.0 | 0.00 | 0.00 | 0.00 | 58 | 1013.3 |
| 20260507180956 | 56 | 139 | 3.5 | 6.1 | 0.00 | 0.00 | 0.00 | 59 | 1013.2 |
| 20260507180456 | 56 | 138 | 3.5 | 6.1 | 0.00 | 0.00 | 0.00 | 59 | 1013.2 |
| 20260507175958 | 56 | 137 | 3.5 | 5.2 | 0.00 | 0.00 | 0.00 | 58 | 1013.2 |
| 20260507175457 | 57 | 139 | 2.6 | 4.3 | 0.00 | 0.00 | 0.00 | 59 | 1013.2 |
| 20260507174956 | 57 | 146 | 2.6 | 4.3 | 0.00 | 0.00 | 0.00 | 59 | 1013.3 |
| 20260507173957 | 57 | 144 | 2.6 | 6.1 | 0.00 | 0.00 | 0.00 | 57 | 1013.3 |
| 20260507173456 | 57 | 149 | 3.5 | 7.8 | 0.00 | 0.00 | 0.00 | 57 | 1013.2 |
| 20260507173000 | 57 | 152 | 3.5 | 7.8 | 0.00 | 0.00 | 0.00 | 56 | 1013.3 |
| 20260507172455 | 58 | 145 | 3.5 | 7.8 | 0.00 | 0.00 | 0.00 | 56 | 1013.2 |
| 20260507171956 | 58 | 141 | 4.3 | 7.8 | 0.00 | 0.00 | 0.00 | 55 | 1013.2 |
| 20260507171458 | 58 | 142 | 5.2 | 9.6 | 0.00 | 0.00 | 0.00 | 54 | 1013.2 |
| 20260507170956 | 58 | 138 | 5.2 | 9.6 | 0.00 | 0.00 | 0.00 | 54 | 1013.3 |
| 20260507165958 | 58 | 150 | 4.3 | 9.6 | 0.00 | 0.00 | 0.00 | 54 | 1013.3 |
| 20260507164459 | 59 | 149 | 4.3 | 9.6 | 0.00 | 0.00 | 0.00 | 52 | 1013.3 |
| 20260507163956 | 59 | 145 | 5.2 | 9.6 | 0.00 | 0.00 | 0.00 | 52 | 1013.2 |
| 20260507163455 | 59 | 147 | 6.1 | 10.4 | 0.00 | 0.00 | 0.00 | 52 | 1013.2 |
| 20260507162959 | 60 | 149 | 6.1 | 10.4 | 0.00 | 0.00 | 0.00 | 50 | 1013.2 |
| 20260507162456 | 60 | 145 | 5.2 | 8.7 | 0.00 | 0.00 | 0.00 | 52 | 1013.3 |
| 20260507161956 | 60 | 149 | 5.2 | 9.6 | 0.00 | 0.00 | 0.00 | 51 | 1013.2 |
| 20260507161459 | 60 | 152 | 5.2 | 9.6 | 0.00 | 0.00 | 0.00 | 51 | 1013.2 |
| 20260507160955 | 61 | 150 | 4.3 | 7.8 | 0.00 | 0.00 | 0.00 | 51 | 1013.2 |
| 20260507160458 | 61 | 140 | 5.2 | 8.7 | 0.00 | 0.00 | 0.00 | 52 | 1013.2 |
| 20260507155958 | 60 | 132 | 6.1 | 9.6 | 0.00 | 0.00 | 0.00 | 51 | 1013.3 |
| 20260507155456 | 60 | 138 | 5.2 | 9.6 | 0.00 | 0.00 | 0.00 | 51 | 1013.3 |
| 20260507154955 | 60 | 143 | 5.2 | 10.4 | 0.00 | 0.00 | 0.00 | 52 | 1013.3 |
| 20260507154459 | 61 | 140 | 5.2 | 10.4 | 0.00 | 0.00 | 0.00 | 51 | 1013.3 |
| 20260507153456 | 61 | 144 | 6.1 | 8.7 | 0.00 | 0.00 | 0.00 | 51 | 1013.4 |
| 20260507152457 | 61 | 157 | 5.2 | 10.4 | 0.00 | 0.00 | 0.00 | 50 | 1013.4 |
| 20260507151956 | 61 | 143 | 5.2 | 9.6 | 0.00 | 0.00 | 0.00 | 50 | 1013.4 |
| 20260507151458 | 62 | 140 | 6.1 | 9.6 | 0.00 | 0.00 | 0.00 | 52 | 1013.5 |
| 20260507150956 | 61 | 144 | 6.1 | 9.6 | 0.00 | 0.00 | 0.00 | 52 | 1013.6 |
| 20260507150456 | 61 | 146 | 6.1 | 10.4 | 0.00 | 0.00 | 0.00 | 51 | 1013.5 |
| 20260507150000 | 61 | 157 | 6.1 | 10.4 | 0.00 | 0.00 | 0.00 | 50 | 1013.6 |
| 20260507144956 | 62 | 150 | 6.1 | 10.4 | 0.00 | 0.00 | 0.00 | 50 | 1013.6 |
| 20260507143956 | 62 | 142 | 5.2 | 10.4 | 0.00 | 0.00 | 0.00 | 52 | 1013.8 |
| 20260507143456 | 62 | 157 | 6.1 | 10.4 | 0.00 | 0.00 | 0.00 | 51 | 1013.8 |
| 20260507142959 | 62 | 163 | 6.1 | 12.2 | 0.00 | 0.00 | 0.00 | 51 | 1013.9 |
| 20260507142456 | 62 | 165 | 5.2 | 12.2 | 0.00 | 0.00 | 0.00 | 50 | 1013.9 |
| 20260507141956 | 61 | 163 | 5.2 | 8.7 | 0.00 | 0.00 | 0.00 | 51 | 1014.1 |
| 20260507140955 | 61 | 161 | 5.2 | 10.4 | 0.00 | 0.00 | 0.00 | 51 | 1014.2 |
| 20260507140457 | 61 | 163 | 5.2 | 9.6 | 0.00 | 0.00 | 0.00 | 51 | 1014.2 |
| 20260507140000 | 61 | 157 | 5.2 | 9.6 | 0.00 | 0.00 | 0.00 | 54 | 1014.2 |
| 20260507134956 | 60 | 147 | 5.2 | 10.4 | 0.00 | 0.00 | 0.00 | 53 | 1014.3 |
| 20260507134459 | 61 | 142 | 6.1 | 11.3 | 0.00 | 0.00 | 0.00 | 53 | 1014.4 |
| 20260507133956 | 61 | 140 | 5.2 | 11.3 | 0.00 | 0.00 | 0.00 | 55 | 1014.3 |
| 20260507133455 | 60 | 156 | 5.2 | 11.3 | 0.00 | 0.00 | 0.00 | 56 | 1014.3 |
| 20260507132958 | 60 | 168 | 7.0 | 12.2 | 0.00 | 0.00 | 0.00 | 53 | 1014.4 |
| 20260507131956 | 60 | 163 | 7.0 | 12.2 | 0.00 | 0.00 | 0.00 | 54 | 1014.5 |
| 20260507131458 | 60 | 161 | 7.0 | 12.2 | 0.00 | 0.00 | 0.00 | 54 | 1014.5 |
| 20260507130955 | 60 | 157 | 5.2 | 11.3 | 0.00 | 0.00 | 0.00 | 55 | 1014.5 |
| 20260507130455 | 60 | 157 | 5.2 | 10.4 | 0.00 | 0.00 | 0.00 | 56 | 1014.5 |
| 20260507125958 | 60 | 157 | 5.2 | 12.2 | 0.00 | 0.00 | 0.00 | 55 | 1014.5 |
| 20260507125457 | 60 | 164 | 5.2 | 12.2 | 0.00 | 0.00 | 0.00 | 54 | 1014.6 |
| 20260507124957 | 61 | 160 | 5.2 | 9.6 | 0.00 | 0.00 | 0.00 | 54 | 1014.5 |
| 20260507124458 | 61 | 141 | 6.1 | 9.6 | 0.00 | 0.00 | 0.00 | 57 | 1014.5 |
| 20260507123956 | 61 | 140 | 6.1 | 10.4 | 0.00 | 0.00 | 0.00 | 54 | 1014.6 |
| 20260507123455 | 60 | 138 | 5.2 | 10.4 | 0.00 | 0.00 | 0.00 | 54 | 1014.6 |
| 20260507122958 | 60 | 139 | 5.2 | 11.3 | 0.00 | 0.00 | 0.00 | 55 | 1014.6 |
| 20260507122455 | 60 | 152 | 6.1 | 11.3 | 0.00 | 0.00 | 0.00 | 55 | 1014.6 |
| 20260507121955 | 60 | 159 | 6.1 | 11.3 | 0.00 | 0.00 | 0.00 | 55 | 1014.6 |
| 20260507121458 | 59 | 159 | 7.0 | 12.2 | 0.00 | 0.00 | 0.00 | 57 | 1014.7 |
| 20260507120955 | 59 | 169 | 6.1 | 12.2 | 0.00 | 0.00 | 0.00 | 54 | 1014.7 |
| 20260507120456 | 59 | 178 | 5.2 | 11.3 | 0.00 | 0.00 | 0.00 | 56 | 1014.7 |
| 20260507115958 | 59 | 169 | 7.0 | 11.3 | 0.00 | 0.00 | 0.00 | 55 | 1014.8 |
| 20260507115457 | 59 | 164 | 7.0 | 11.3 | 0.00 | 0.00 | 0.00 | 54 | 1014.9 |
| 20260507114956 | 58 | 159 | 5.2 | 10.4 | 0.00 | 0.00 | 0.00 | 55 | 1014.8 |
| 20260507113956 | 58 | 157 | 5.2 | 10.4 | 0.00 | 0.00 | 0.00 | 57 | 1014.8 |
| 20260507112958 | 57 | 163 | 5.2 | 10.4 | 0.00 | 0.00 | 0.00 | 59 | 1014.9 |
| 20260507112456 | 57 | 170 | 5.2 | 10.4 | 0.00 | 0.00 | 0.00 | 59 | 1014.8 |
| 20260507111956 | 56 | 169 | 5.2 | 10.4 | 0.00 | 0.00 | 0.00 | 59 | 1014.9 |
| 20260507111459 | 56 | 158 | 5.2 | 9.6 | 0.00 | 0.00 | 0.00 | 60 | 1014.8 |
| 20260507110957 | 56 | 147 | 4.3 | 9.6 | 0.00 | 0.00 | 0.00 | 63 | 1014.9 |
| 20260507110455 | 56 | 138 | 4.3 | 7.0 | 0.00 | 0.00 | 0.00 | 65 | 1014.9 |
| 20260507105959 | 55 | 141 | 4.3 | 7.0 | 0.00 | 0.00 | 0.00 | 66 | 1015.0 |
| 20260507105456 | 55 | 151 | 4.3 | 7.8 | 0.00 | 0.00 | 0.00 | 68 | 1015.0 |
| 20260507104955 | 55 | 159 | 4.3 | 8.7 | 0.00 | 0.00 | 0.00 | 66 | 1015.0 |
| 20260507103955 | 54 | 156 | 4.3 | 8.7 | 0.00 | 0.00 | 0.00 | 69 | 1015.1 |
| 20260507103455 | 54 | 155 | 4.3 | 8.7 | 0.00 | 0.00 | 0.00 | 67 | 1015.1 |
| 20260507102959 | 54 | 151 | 4.3 | 7.8 | 0.00 | 0.00 | 0.00 | 69 | 1015.2 |
| 20260507102456 | 54 | 157 | 5.2 | 9.6 | 0.00 | 0.00 | 0.00 | 69 | 1015.1 |
| 20260507101955 | 54 | 158 | 4.3 | 9.6 | 0.00 | 0.00 | 0.00 | 69 | 1015.1 |
| 20260507101458 | 53 | 158 | 4.3 | 7.8 | 0.00 | 0.00 | 0.00 | 71 | 1015.1 |
| 20260507100955 | 53 | 154 | 3.5 | 7.8 | 0.00 | 0.00 | 0.00 | 71 | 1015.1 |
| 20260507100455 | 53 | 162 | 3.5 | 8.7 | 0.00 | 0.00 | 0.00 | 73 | 1015.1 |
| 20260507095958 | 52 | 165 | 5.2 | 8.7 | 0.00 | 0.00 | 0.00 | 72 | 1015.1 |
| 20260507095456 | 52 | 159 | 4.3 | 8.7 | 0.00 | 0.00 | 0.00 | 72 | 1015.2 |
| 20260507094956 | 52 | 143 | 3.5 | 7.0 | 0.00 | 0.00 | 0.00 | 73 | 1015.2 |
| 20260507094458 | 52 | 136 | 4.3 | 7.0 | 0.00 | 0.00 | 0.00 | 74 | 1015.2 |
| 20260507093955 | 52 | 140 | 4.3 | 7.0 | 0.00 | 0.00 | 0.00 | 74 | 1015.1 |
| 20260507093457 | 52 | 146 | 3.5 | 6.1 | 0.00 | 0.00 | 0.00 | 73 | 1015.2 |
| 20260507092958 | 52 | 153 | 3.5 | 7.8 | 0.00 | 0.00 | 0.00 | 76 | 1015.1 |
| 20260507092456 | 52 | 151 | 3.5 | 7.8 | 0.00 | 0.00 | 0.00 | 74 | 1015.2 |
| 20260507091955 | 51 | 144 | 2.6 | 7.0 | 0.00 | 0.00 | 0.00 | 76 | 1015.2 |
| 20260507091458 | 51 | 142 | 1.7 | 4.3 | 0.00 | 0.00 | 0.00 | 77 | 1015.1 |
| 20260507090457 | 50 | 122 | 0.9 | 4.3 | 0.00 | 0.00 | 0.00 | 80 | 1015.1 |
| 20260507085958 | 50 | 127 | 0.9 | 3.5 | 0.00 | 0.00 | 0.00 | 80 | 1015.2 |
| 20260507085457 | 49 | 107 | 0.9 | 4.3 | 0.00 | 0.00 | 0.00 | 80 | 1015.1 |
| 20260507084955 | 49 | 89 | 0.9 | 4.3 | 0.00 | 0.00 | 0.00 | 80 | 1015.1 |
| 20260507084458 | 49 | 0 | 0.0 | 1.7 | 0.00 | 0.00 | 0.00 | 81 | 1015.1 |
| 20260507083955 | 48 | 0 | 0.0 | 0.9 | 0.00 | 0.00 | 0.00 | 81 | 1015.2 |
| 20260507082456 | 47 | 0 | 0.0 | 0.9 | 0.00 | 0.00 | 0.00 | 83 | 1015.2 |
| 20260507081955 | 47 | 0 | 0.0 | 0.9 | 0.00 | 0.00 | 0.00 | 84 | 1015.2 |
| 20260507080955 | 47 | 0 | 0.0 | 0.0 | 0.00 | 0.00 | 0.00 | 83 | 1015.2 |
| 20260507075456 | 47 | 0 | 0.0 | 0.0 | 0.00 | 0.00 | 0.00 | 83 | 1015.2 |
| 20260507074955 | 47 | 0 | 0.0 | 0.0 | 0.00 | 0.00 | 0.00 | 84 | 1015.3 |
| 20260507072958 | 46 | 0 | 0.0 | 0.9 | 0.00 | 0.00 | 0.00 | 85 | 1015.2 |
| 20260507072455 | 46 | 0 | 0.0 | 0.9 | 0.00 | 0.00 | 0.00 | 85 | 1015.1 |
| 20260507071956 | 46 | 0 | 0.0 | 0.9 | 0.00 | 0.00 | 0.00 | 85 | 1015.1 |
| 20260507071458 | 46 | 0 | 0.0 | 0.9 | 0.00 | 0.00 | 0.00 | 86 | 1015.1 |
| 20260507070955 | 45 | 0 | 0.0 | 0.0 | 0.00 | 0.00 | 0.00 | 86 | 1015.0 |
| 20260507065958 | 45 | 0 | 0.0 | 0.9 | 0.00 | 0.00 | 0.00 | 86 | 1015.0 |
| 20260507065455 | 45 | 0 | 0.0 | 0.9 | 0.00 | 0.00 | 0.00 | 87 | 1015.0 |
| 20260507064955 | 44 | 0 | 0.0 | 0.9 | 0.00 | 0.00 | 0.00 | 87 | 1015.0 |
| 20260507063956 | 44 | 0 | 0.0 | 1.7 | 0.00 | 0.00 | 0.00 | 88 | 1014.9 |
| 20260507063456 | 44 | 0 | 0.0 | 1.7 | 0.00 | 0.00 | 0.00 | 88 | 1015.0 |
| 20260507062456 | 43 | 0 | 0.0 | 0.0 | 0.00 | 0.00 | 0.00 | 89 | 1015.0 |
| 20260507061956 | 43 | 0 | 0.0 | 0.0 | 0.00 | 0.00 | 0.00 | 89 | 1015.0 |
| 20260507061457 | 43 | 0 | 0.0 | 0.0 | 0.00 | 0.00 | 0.00 | 89 | 1015.0 |
| 20260507060956 | 43 | 0 | 0.0 | 0.0 | 0.00 | 0.00 | 0.00 | 89 | 1015.0 |
| 20260507060454 | 42 | 0 | 0.0 | 0.0 | 0.00 | 0.00 | 0.00 | 89 | 1014.9 |
| 20260507055958 | 42 | 0 | 0.0 | 0.0 | 0.00 | 0.00 | 0.00 | 90 | 1014.9 |
| 20260507055456 | 42 | 0 | 0.0 | 0.0 | 0.00 | 0.00 | 0.00 | 90 | 1014.9 |
| 20260507054956 | 42 | 0 | 0.0 | 0.0 | 0.00 | 0.00 | 0.00 | 90 | 1014.9 |
| 20260507054457 | 42 | 0 | 0.0 | 0.9 | 0.00 | 0.00 | 0.00 | 90 | 1014.8 |
| 20260507053956 | 41 | 0 | 0.0 | 1.7 | 0.00 | 0.00 | 0.00 | 90 | 1014.8 |
| 20260507053455 | 41 | 0 | 0.0 | 1.7 | 0.00 | 0.00 | 0.00 | 90 | 1014.8 |
| 20260507052959 | 41 | 0 | 0.0 | 0.0 | 0.00 | 0.00 | 0.00 | 90 | 1014.7 |
| 20260507052455 | 40 | 0 | 0.0 | 0.0 | 0.00 | 0.00 | 0.00 | 90 | 1014.7 |
| 20260507051955 | 40 | 0 | 0.0 | 0.0 | 0.00 | 0.00 | 0.00 | 90 | 1014.7 |
| 20260507051458 | 40 | 0 | 0.0 | 0.0 | 0.00 | 0.00 | 0.00 | 90 | 1014.7 |
| 20260507050956 | 40 | 0 | 0.0 | 0.0 | 0.00 | 0.00 | 0.00 | 90 | 1014.7 |
| 20260507050455 | 39 | 0 | 0.0 | 0.0 | 0.00 | 0.00 | 0.00 | 90 | 1014.7 |
| 20260507045957 | 39 | 0 | 0.0 | 0.0 | 0.00 | 0.00 | 0.00 | 90 | 1014.7 |
| 20260507044956 | 39 | 0 | 0.0 | 0.0 | 0.00 | 0.00 | 0.00 | 90 | 1014.7 |
| 20260507043456 | 39 | 0 | 0.0 | 0.0 | 0.00 | 0.00 | 0.00 | 89 | 1014.6 |
| 20260507042959 | 39 | 0 | 0.0 | 0.0 | 0.00 | 0.00 | 0.00 | 89 | 1014.7 |
| 20260507042456 | 40 | 0 | 0.0 | 0.0 | 0.00 | 0.00 | 0.00 | 89 | 1014.7 |
| 20260507041955 | 40 | 0 | 0.0 | 0.0 | 0.00 | 0.00 | 0.00 | 89 | 1014.7 |
| 20260507041459 | 40 | 0 | 0.0 | 0.0 | 0.00 | 0.00 | 0.00 | 88 | 1014.6 |
| 20260507040956 | 40 | 0 | 0.0 | 0.0 | 0.00 | 0.00 | 0.00 | 88 | 1014.6 |
| 20260507040455 | 41 | 0 | 0.0 | 0.0 | 0.00 | 0.00 | 0.00 | 88 | 1014.7 |
| 20260507035958 | 41 | 0 | 0.0 | 0.0 | 0.00 | 0.00 | 0.00 | 88 | 1014.7 |
| 20260507035455 | 41 | 0 | 0.0 | 0.0 | 0.00 | 0.00 | 0.00 | 88 | 1014.7 |
| 20260507034956 | 41 | 0 | 0.0 | 0.0 | 0.00 | 0.00 | 0.00 | 88 | 1014.7 |
| 20260507034457 | 41 | 0 | 0.0 | 0.0 | 0.00 | 0.00 | 0.00 | 88 | 1014.7 |
| 20260507033956 | 41 | 0 | 0.0 | 0.0 | 0.00 | 0.00 | 0.00 | 88 | 1014.7 |
| 20260507033456 | 41 | 0 | 0.0 | 0.0 | 0.00 | 0.00 | 0.00 | 88 | 1014.7 |
| 20260507032958 | 41 | 0 | 0.0 | 0.0 | 0.00 | 0.00 | 0.00 | 87 | 1014.7 |
| 20260507032456 | 41 | 0 | 0.0 | 0.0 | 0.00 | 0.00 | 0.00 | 87 | 1014.8 |
| 20260507031954 | 42 | 0 | 0.0 | 0.9 | 0.00 | 0.00 | 0.00 | 87 | 1014.7 |
| 20260507031458 | 42 | 0 | 0.0 | 0.9 | 0.00 | 0.00 | 0.00 | 86 | 1014.7 |
| 20260507030956 | 42 | 0 | 0.0 | 0.0 | 0.00 | 0.00 | 0.00 | 86 | 1014.8 |
| 20260507030454 | 42 | 0 | 0.0 | 0.0 | 0.00 | 0.00 | 0.00 | 86 | 1014.8 |
| 20260507025958 | 42 | 0 | 0.0 | 0.0 | 0.00 | 0.00 | 0.00 | 86 | 1014.8 |
| 20260507025455 | 42 | 0 | 0.0 | 0.9 | 0.00 | 0.00 | 0.00 | 85 | 1014.8 |
| 20260507023955 | 42 | 0 | 0.0 | 0.9 | 0.00 | 0.00 | 0.00 | 85 | 1014.8 |
| 20260507022958 | 42 | 0 | 0.0 | 2.6 | 0.00 | 0.00 | 0.00 | 84 | 1014.8 |
| 20260507021458 | 44 | 0 | 0.0 | 0.0 | 0.00 | 0.00 | 0.00 | 81 | 1014.8 |
| 20260507020955 | 44 | 0 | 0.0 | 1.7 | 0.00 | 0.00 | 0.00 | 80 | 1014.7 |
| 20260507020455 | 44 | 143 | 0.9 | 2.6 | 0.00 | 0.00 | 0.00 | 80 | 1014.7 |
| 20260507015959 | 44 | 140 | 1.7 | 4.3 | 0.00 | 0.00 | 0.00 | 80 | 1014.7 |
| 20260507015454 | 44 | 132 | 2.6 | 6.1 | 0.00 | 0.00 | 0.00 | 80 | 1014.8 |
| 20260507014955 | 44 | 129 | 2.6 | 6.1 | 0.00 | 0.00 | 0.00 | 80 | 1014.8 |
| 20260507014458 | 44 | 129 | 2.6 | 5.2 | 0.00 | 0.00 | 0.00 | 80 | 1014.8 |
| 20260507013955 | 44 | 123 | 2.6 | 5.2 | 0.00 | 0.00 | 0.00 | 80 | 1014.8 |
| 20260507013455 | 44 | 122 | 0.9 | 5.2 | 0.00 | 0.00 | 0.00 | 80 | 1014.8 |
| 20260507012959 | 44 | 134 | 0.9 | 2.6 | 0.00 | 0.00 | 0.00 | 80 | 1014.8 |
| 20260507011956 | 44 | 0 | 0.0 | 1.7 | 0.00 | 0.00 | 0.00 | 81 | 1014.9 |
| 20260507011458 | 44 | 140 | 0.9 | 3.5 | 0.00 | 0.00 | 0.00 | 81 | 1014.9 |
| 20260507010455 | 44 | 143 | 1.7 | 3.5 | 0.00 | 0.00 | 0.00 | 81 | 1015.0 |
| 20260507005959 | 44 | 142 | 1.7 | 3.5 | 0.00 | 0.00 | 0.00 | 81 | 1015.0 |
| 20260507005455 | 44 | 133 | 1.7 | 3.5 | 0.00 | 0.00 | 0.00 | 81 | 1015.0 |
| 20260507004955 | 44 | 131 | 1.7 | 3.5 | 0.00 | 0.00 | 0.00 | 81 | 1015.0 |
| 20260507004458 | 44 | 136 | 1.7 | 3.5 | 0.00 | 0.00 | 0.00 | 82 | 1015.0 |
| 20260507003957 | 44 | 138 | 1.7 | 3.5 | 0.00 | 0.00 | 0.00 | 82 | 1015.0 |
| 20260507003455 | 44 | 143 | 1.7 | 3.5 | 0.00 | 0.00 | 0.00 | 82 | 1015.1 |
| 20260507003000 | 44 | 144 | 1.7 | 3.5 | 0.00 | 0.00 | 0.00 | 82 | 1015.1 |
| 20260507002457 | 44 | 128 | 0.9 | 3.5 | 0.00 | 0.00 | 0.00 | 83 | 1015.1 |
| 20260507001459 | 44 | 106 | 0.9 | 3.5 | 0.00 | 0.00 | 0.00 | 83 | 1015.1 |
| 20260507000956 | 44 | 108 | 1.7 | 3.5 | 0.00 | 0.00 | 0.00 | 82 | 1015.1 |
| 20260507000456 | 44 | 119 | 1.7 | 4.3 | 0.00 | 0.00 | 0.00 | 83 | 1015.1 |
| 20260506235959 | 44 | 122 | 2.6 | 5.2 | 0.00 | 0.00 | 0.00 | 83 | 1015.1 |
| 20260506235456 | 44 | 122 | 2.6 | 5.2 | 0.00 | 0.00 | 0.00 | 83 | 1015.1 |
| 20260506234957 | 44 | 118 | 2.6 | 5.2 | 0.00 | 0.00 | 0.00 | 82 | 1015.1 |
| 20260506234459 | 44 | 112 | 3.5 | 7.8 | 0.00 | 0.00 | 0.00 | 82 | 1015.1 |
| 20260506233457 | 44 | 104 | 2.6 | 7.0 | 0.00 | 0.00 | 0.00 | 82 | 1015.1 |
| 20260506232457 | 44 | 110 | 4.3 | 8.7 | 0.00 | 0.00 | 0.00 | 82 | 1015.2 |
| 20260506231957 | 44 | 111 | 4.3 | 7.8 | 0.00 | 0.00 | 0.00 | 82 | 1015.2 |
| 20260506231459 | 44 | 120 | 4.3 | 7.8 | 0.00 | 0.00 | 0.00 | 82 | 1015.2 |
| 20260506230956 | 44 | 122 | 4.3 | 8.7 | 0.00 | 0.00 | 0.00 | 83 | 1015.2 |
| 20260506230457 | 44 | 120 | 3.5 | 8.7 | 0.00 | 0.00 | 0.00 | 83 | 1015.0 |
| 20260506230005 | 44 | 123 | 2.6 | 7.8 | 0.00 | 0.00 | 0.00 | 83 | 1015.1 |
| 20260506225457 | 43 | 111 | 2.6 | 7.8 | 0.00 | 0.00 | 0.00 | 84 | 1015.1 |
| 20260506224958 | 43 | 114 | 2.6 | 6.1 | 0.00 | 0.00 | 0.00 | 84 | 1015.1 |
| 20260506223957 | 43 | 115 | 2.6 | 5.2 | 0.00 | 0.00 | 0.00 | 84 | 1015.1 |
| 20260506223000 | 43 | 110 | 0.9 | 5.2 | 0.00 | 0.00 | 0.00 | 83 | 1015.1 |
| 20260506222459 | 43 | 0 | 0.0 | 3.5 | 0.00 | 0.00 | 0.00 | 83 | 1015.1 |
| 20260506221958 | 44 | 0 | 0.0 | 2.6 | 0.00 | 0.00 | 0.00 | 83 | 1015.0 |
| 20260506221501 | 44 | 124 | 0.9 | 2.6 | 0.00 | 0.00 | 0.00 | 82 | 1015.0 |
| 20260506220458 | 44 | 96 | 1.7 | 3.5 | 0.00 | 0.00 | 0.00 | 82 | 1015.0 |
| 20260506220001 | 44 | 84 | 1.7 | 5.2 | 0.00 | 0.00 | 0.00 | 82 | 1014.9 |
| 20260506215457 | 44 | 99 | 0.9 | 5.2 | 0.00 | 0.00 | 0.00 | 83 | 1014.8 |
| 20260506214957 | 44 | 107 | 0.9 | 4.3 | 0.00 | 0.00 | 0.00 | 82 | 1014.7 |
| 20260506214501 | 44 | 69 | 0.9 | 2.6 | 0.00 | 0.00 | 0.00 | 82 | 1014.8 |
| 20260506213957 | 44 | 68 | 1.7 | 2.6 | 0.00 | 0.00 | 0.00 | 81 | 1014.9 |
| 20260506213459 | 44 | 67 | 1.7 | 2.6 | 0.00 | 0.00 | 0.00 | 81 | 1014.8 |
| 20260506212458 | 44 | 91 | 1.7 | 4.3 | 0.00 | 0.00 | 0.00 | 81 | 1014.8 |
| 20260506211958 | 44 | 101 | 1.7 | 3.5 | 0.00 | 0.00 | 0.00 | 80 | 1014.7 |
| 20260506211500 | 45 | 100 | 1.7 | 6.1 | 0.00 | 0.00 | 0.00 | 80 | 1014.7 |
| 20260506210958 | 45 | 94 | 1.7 | 6.1 | 0.00 | 0.00 | 0.00 | 80 | 1014.7 |
| 20260506210459 | 45 | 91 | 1.7 | 4.3 | 0.00 | 0.00 | 0.00 | 79 | 1014.7 |
| 20260506210001 | 45 | 90 | 0.9 | 3.5 | 0.00 | 0.00 | 0.00 | 79 | 1014.8 |
| 20260506204501 | 46 | 113 | 1.7 | 4.3 | 0.00 | 0.00 | 0.00 | 78 | 1014.6 |
| 20260506203959 | 46 | 108 | 2.6 | 5.2 | 0.00 | 0.00 | 0.00 | 78 | 1014.6 |
| 20260506203459 | 46 | 101 | 2.6 | 5.2 | 0.00 | 0.00 | 0.00 | 78 | 1014.6 |
| 20260506201958 | 47 | 99 | 1.7 | 4.3 | 0.00 | 0.00 | 0.00 | 76 | 1014.5 |
| 20260506201502 | 47 | 91 | 1.7 | 3.5 | 0.00 | 0.00 | 0.00 | 75 | 1014.5 |
| 20260506201000 | 47 | 83 | 1.7 | 4.3 | 0.00 | 0.00 | 0.00 | 74 | 1014.4 |
| 20260506200459 | 47 | 91 | 2.6 | 6.1 | 0.00 | 0.00 | 0.00 | 75 | 1014.3 |
| 20260506200001 | 47 | 92 | 2.6 | 6.1 | 0.00 | 0.00 | 0.00 | 74 | 1014.2 |
| 20260506194959 | 48 | 91 | 2.6 | 5.2 | 0.00 | 0.00 | 0.00 | 72 | 1014.2 |
| 20260506194501 | 48 | 95 | 1.7 | 4.3 | 0.00 | 0.00 | 0.00 | 72 | 1014.1 |
| 20260506193959 | 48 | 97 | 2.6 | 4.3 | 0.00 | 0.00 | 0.00 | 71 | 1014.1 |
| 20260506193458 | 49 | 109 | 2.6 | 4.3 | 0.00 | 0.00 | 0.00 | 70 | 1014.0 |
| 20260506192000 | 49 | 98 | 3.5 | 6.1 | 0.00 | 0.00 | 0.00 | 68 | 1013.9 |
| 20260506191502 | 49 | 94 | 2.6 | 6.1 | 0.00 | 0.00 | 0.00 | 67 | 1013.9 |
| 20260506191000 | 50 | 104 | 2.6 | 5.2 | 0.00 | 0.00 | 0.00 | 67 | 1013.9 |
| 20260506190500 | 50 | 110 | 3.5 | 8.7 | 0.00 | 0.00 | 0.00 | 67 | 1013.9 |
| 20260506190002 | 50 | 118 | 3.5 | 8.7 | 0.00 | 0.00 | 0.00 | 66 | 1013.9 |
| 20260506185500 | 50 | 116 | 3.5 | 8.7 | 0.00 | 0.00 | 0.00 | 66 | 1013.9 |
| 20260506184959 | 51 | 116 | 5.2 | 11.3 | 0.00 | 0.00 | 0.00 | 65 | 1013.9 |
| 20260506184504 | 51 | 116 | 5.2 | 11.3 | 0.00 | 0.00 | 0.00 | 64 | 1013.8 |
| 20260506183959 | 51 | 111 | 4.3 | 8.7 | 0.00 | 0.00 | 0.00 | 64 | 1013.7 |